"Pseudo-MPEC" for ZC8561C

Created 2018 Feb 19 17:18:13 UT using Find_Orb

Astrometry:
     ZC8561C  C2017 12 25fXAstrometry;;W[]@T;U;b9ok5EuU]xm?1]rXs?)9QxTc3k]A-9F51
     ZC8561C  C2017 12 25\I,+ouQDQ4Bx-S[%1.ynG*FVmYGQ!.D7XPC'LtKWbGUJTjOfy(43F51
     ZC8561C  C2017 12 25[VZ:$1o2U-D`PK2$Pifwx6RB@ruH`v5ARp60'+C78AwhmcFw,3O^F51
     ZC8561C  C2017 12 25#[wSV9R55*_K;AV82IYckL8$2%Sp\hPZA,448##CcN8*_Pbc%Sj+F51
     ZC8561C  C2018 02 09.32857 10 56 03.14 +37 37 09.2          21.4 GUNEOCPG96
     ZC8561C  C2018 02 09.33376 10 56 02.54 +37 37 09.6          20.7 GUNEOCPG96
     ZC8561C  C2018 02 09.33894 10 56 01.91 +37 37 08.8          21.5 GUNEOCPG96
     ZC8561C  C2018 02 09.34411 10 56 01.22 +37 37 08.6          21.1 GUNEOCPG96
     ZC8561C  C2018 02 15kH=JUg-CqAXU,JX0GA8_%Qiu9-Tmw_8yVcTwpQI7o[l!+$eSF$8%L01
     ZC8561C  C2018 02 15/\!IiU@oT?%qM#g$Xredacted;MaJ(l)HEOL8.5N/^=?T74c09Z]L01
     ZC8561C  C2018 02 15pH;vZB]_J*hr)=xAK4I5L@T'WBjg[J$,L?(-a@lfJZ8SQkOV%xE+L01
     ZC8561C  C2018 02 15?y2PuV1'B=-y:#?`Cit\wKML\,J'7C[$tVZlg;4^IP^=.#XQGRgDL01
     ZC8561C KC2018 02 16X:p:tulVplgP^.FLmo#QfeTD!w*y/xo#yjxkb/;.vEl*kw`u(M`7L01
     ZC8561C KC2018 02 16qWlHalW9aZl+37GBRUrx!i@T*o61VM\3see@+NfgMQ43dKZ`$jXkL01
     ZC8561C KC2018 02 164EeBO[Y:k`wXZ(,FxMNOaam3u-k?eG1TlPPvec6VJ34^ot+H3Q=NL01
     ZC8561C KC2018 02 16E*IRuirBTi*Vep@UDio(8Cg`y8=N7!Riwu;sOub3R']L]p3xVf%VL01
     ZC8561C  C2018 02 18@qMo.N!Q%vmy%h;ltwPFZn:[oXk57!U.N$pW%H\!o5Z7QM2N#XbKF51
     ZC8561C  C2018 02 18O`D4Q3Shh[G_8L-u(V0bm;5%Cl8+qgaWePcxV@xwg]6:Devu^n7NF51
     ZC8561C  C2018 02 18M4te@F,[#q1foA\6tZW1JqV5m0d,XU4`j.K0TXE2)1RyRiiNEOCPF51

Station data:
(F51) Pan-STARRS 1, Haleakala  (N20.707234 W156.255910)  US/Hawaii.
   Observers N. Primak, A. Schultz, S. Watters, J. Thiel, T. Goggia. Measurer
   PS1 Science Consortium. 1.8-m Ritchey-Chrétien + CCD.
(G96) Mt. Lemmon Survey  (N32.442751 W110.788720)  US/Arizona.  Observers E.
   J. Christensen, A. R. Gibbs, A. D. Grauer, R. E. Hill, J. A. Johnson, R.
   A. Kowalski, S. M. Larson, F. C. Shelly. 1.5-m reflector + CCD.
(L01) Višnjan Observatory, Tican  (N45.290897 E13.749300)  Croatia.

Orbital elements:  ZC8561C
   Perihelion 2018 Dec 25.207002 +/- 0.339 TT =  4:58:04 (JD 2458477.707002)
Epoch 2018 Feb 18.0 TT = JDT 2458167.5   Earth MOID: 0.8409   AutoNEOCP
M 239.77446 +/- 0.13                (J2000 ecliptic)
n   0.38756551 +/- 2.99e-5          Peri.  271.19969 +/- 0.11
a   1.86311344 +/- 9.57e-5          Node   358.84650 +/- 0.0053
e   0.0456477 +/- 0.000163          Incl.   24.30685 +/- 0.0043
P   2.54/928.86d           H 19.2   G  0.15   U  5.8  
q 1.77806642 +/- 0.000234    Q 1.94816047 +/- 0.00039
From 19 observations 2017 Dec. 25-2018 Feb. 18; mean residual 0".31
Residuals in arcseconds: 
171225 F51  .14+  .05+    180209 G96  .90-  .19-    180216 L01  .27-  .13-    
171225 F51  .16-  .08-    180215 L01  .36+  .27+    180216 L01  .75+  .45+    
171225 F51  .02+  .01+    180215 L01  .72-  .01-    180218 F51  .00   .05+    
171225 F51  .00   .02+    180215 L01  .00   .09-    180218 F51  .15-  .09+    
180209 G96  .35+  .10-    180215 L01  .02-  .68-    180218 F51  .15+  .10-    
180209 G96  .42+  .47+    180216 L01  .17+  .07+    
180209 G96  .13+  .16-    180216 L01  .29-  .04+    

Ephemerides (geocentric):
Date (UTC) HH   RA              Dec         delta   r     elong  mag " sig PA
---- -- -- --  ------------   ------------  ------ ------ -----  --- ---- ---
2018 02 19 17  10 34 57.455   +37 04 11.35  .97106 1.9079 153.6 21.3  .16  17
2018 02 19 18  10 34 52.148   +37 03 56.56  .97102 1.9079 153.6 21.3  .16  17
2018 02 19 19  10 34 46.840   +37 03 41.71  .97099 1.9079 153.6 21.3  .16  17
2018 02 19 20  10 34 41.531   +37 03 26.81  .97096 1.9079 153.6 21.3  .16  17
2018 02 19 21  10 34 36.222   +37 03 11.84  .97093 1.9078 153.6 21.3  .16  17
2018 02 19 22  10 34 30.912   +37 02 56.82  .97090 1.9078 153.6 21.3  .16  17
2018 02 19 23  10 34 25.602   +37 02 41.75  .97087 1.9078 153.6 21.3  .16  16
2018 02 20 00  10 34 20.292   +37 02 26.61  .97084 1.9078 153.6 21.3  .17  16
2018 02 20 01  10 34 14.981   +37 02 11.42  .97081 1.9078 153.6 21.3  .17  16
2018 02 20 02  10 34 09.669   +37 01 56.17  .97079 1.9077 153.6 21.3  .17  16
2018 02 20 03  10 34 04.358   +37 01 40.86  .97076 1.9077 153.6 21.3  .17  16
2018 02 20 04  10 33 59.045   +37 01 25.49  .97073 1.9077 153.6 21.3  .17  16
2018 02 20 05  10 33 53.733   +37 01 10.07  .97070 1.9077 153.6 21.3  .17  16
2018 02 20 06  10 33 48.420   +37 00 54.59  .97068 1.9077 153.6 21.3  .17  15
2018 02 20 07  10 33 43.107   +37 00 39.05  .97065 1.9076 153.6 21.3  .18  15
2018 02 20 08  10 33 37.793   +37 00 23.45  .97063 1.9076 153.6 21.3  .18  15
2018 02 20 09  10 33 32.479   +37 00 07.79  .97060 1.9076 153.6 21.3  .18  15
2018 02 20 10  10 33 27.165   +36 59 52.08  .97058 1.9076 153.6 21.3  .18  15
2018 02 20 11  10 33 21.850   +36 59 36.31  .97055 1.9076 153.6 21.3  .18  15
2018 02 20 12  10 33 16.535   +36 59 20.48  .97053 1.9075 153.6 21.3  .18  15
2018 02 20 13  10 33 11.220   +36 59 04.59  .97050 1.9075 153.6 21.3  .18  15
2018 02 20 14  10 33 05.905   +36 58 48.64  .97048 1.9075 153.6 21.3  .18  14
2018 02 20 15  10 33 00.589   +36 58 32.64  .97046 1.9075 153.6 21.3  .19  14
2018 02 20 16  10 32 55.273   +36 58 16.58  .97044 1.9075 153.6 21.3  .19  14
2018 02 20 17  10 32 49.957   +36 58 00.46  .97041 1.9074 153.6 21.3  .19  14
2018 02 20 18  10 32 44.641   +36 57 44.28  .97039 1.9074 153.6 21.3  .19  14
2018 02 20 19  10 32 39.325   +36 57 28.05  .97037 1.9074 153.6 21.3  .19  14
2018 02 20 20  10 32 34.008   +36 57 11.76  .97035 1.9074 153.6 21.3  .19  14
2018 02 20 21  10 32 28.692   +36 56 55.40  .97033 1.9074 153.6 21.3  .19  13
2018 02 20 22  10 32 23.375   +36 56 39.00  .97031 1.9073 153.6 21.3  .20  13
2018 02 20 23  10 32 18.058   +36 56 22.53  .97029 1.9073 153.6 21.3  .20  13
2018 02 21 00  10 32 12.741   +36 56 06.00  .97027 1.9073 153.6 21.3  .20  13
2018 02 21 01  10 32 07.424   +36 55 49.42  .97026 1.9073 153.6 21.3  .20  13
2018 02 21 02  10 32 02.107   +36 55 32.78  .97024 1.9073 153.6 21.3  .20  13
2018 02 21 03  10 31 56.790   +36 55 16.08  .97022 1.9072 153.6 21.3  .20  13
2018 02 21 04  10 31 51.473   +36 54 59.32  .97020 1.9072 153.5 21.3  .20  12
2018 02 21 05  10 31 46.156   +36 54 42.51  .97019 1.9072 153.5 21.3  .21  12
2018 02 21 06  10 31 40.839   +36 54 25.64  .97017 1.9072 153.5 21.3  .21  12
2018 02 21 07  10 31 35.522   +36 54 08.71  .97016 1.9072 153.5 21.3  .21  12
2018 02 21 08  10 31 30.205   +36 53 51.72  .97014 1.9071 153.5 21.3  .21  12
2018 02 21 09  10 31 24.888   +36 53 34.67  .97013 1.9071 153.5 21.3  .21  12
2018 02 21 10  10 31 19.571   +36 53 17.56  .97011 1.9071 153.5 21.3  .21  12
2018 02 21 11  10 31 14.254   +36 53 00.40  .97010 1.9071 153.5 21.3  .21  12
2018 02 21 12  10 31 08.937   +36 52 43.18  .97008 1.9071 153.5 21.3  .21  11
2018 02 21 13  10 31 03.620   +36 52 25.90  .97007 1.9070 153.5 21.3  .22  11
2018 02 21 14  10 30 58.304   +36 52 08.56  .97006 1.9070 153.5 21.3  .22  11
2018 02 21 15  10 30 52.988   +36 51 51.17  .97005 1.9070 153.5 21.3  .22  11
2018 02 21 16  10 30 47.671   +36 51 33.71  .97003 1.9070 153.5 21.3  .22  11